Home   Weather   India   Jhalawar   Past weeks
Flag for India

Past Weather in Jhalawar, Rajasthan, India — Yesterday and Last 2 Weeks

Currently: 84 °F. Fog. (Weather station: Jaipur / Sanganer, India). See more current weather

Past Weather in Jhalawar — Graph

°F

Jhalawar Temperature Yesterday

Maximum temperature yesterday: 93 °F (at 12:30 pm)
Minimum temperature yesterday: 81 °F (at 9:00 pm)
Average temperature yesterday: 86 °F

High & Low Weather Summary for the Past Weeks

 TemperatureHumidityPressure
High100 °F (Jul 10, 3:30 pm)100% (Jul 12, 10:00 am)29.71 "Hg (Jul 12, 10:00 am)
Low73 °F (Jul 12, 10:00 am)33% (Jul 8, 8:30 pm)29.39 "Hg (Jul 22, 3:30 pm)
Average88 °F67%29.56 "Hg
* Reported Jul 8 8:30 pm — Jul 23 9:00 pm, Jhalawar. Weather by CustomWeather, © 2021

Note: Actual official high and low records may vary slightly from our data, if they occured in-between our weather recording intervals... More about our weather records

Jhalawar Weather History for the Previous 24 Hours

Scroll right to see more
 ConditionsComfort  
Time TempWeatherWind HumidityBarometerVisibility
9:00 pm
Fri, Jul 23
84 °FFog.3 mph84%29.50 "Hg1 mi
8:30 pm82 °FThunderstorms. Partly cloudy.No wind89%29.50 "Hg1 mi
8:00 pm82 °FThunderstorms. Partly cloudy.3 mph89%29.47 "Hg1 mi
7:30 pm84 °FThunderstorms. Scattered clouds.5 mph79%29.47 "Hg1 mi
7:00 pm84 °FThunderstorms. Scattered clouds.5 mph84%29.45 "Hg1 mi
6:00 pm86 °FScattered clouds.5 mph75%29.42 "Hg2 mi
5:30 pm84 °FScattered clouds.5 mph79%29.42 "Hg2 mi
5:00 pm84 °FScattered clouds.6 mph84%29.42 "Hg2 mi
4:30 pm84 °FMostly cloudy.7 mph84%29.42 "Hg2 mi
4:00 pm82 °FMostly cloudy.2 mph84%29.42 "Hg1 mi
3:30 pm82 °FThunderstorms. Mostly cloudy.9 mph89%29.45 "Hg1 mi
3:00 pm86 °FThunderstorms. Mostly cloudy.12 mph75%29.45 "Hg1 mi
2:30 pm90 °FMostly cloudy.9 mph63%29.45 "Hg2 mi
2:00 pm90 °FBroken clouds.12 mph63%29.47 "Hg2 mi
1:30 pm91 °FBroken clouds.9 mph63%29.47 "Hg2 mi
1:00 pm91 °FBroken clouds.7 mph63%29.47 "Hg2 mi
12:30 pm90 °FBroken clouds.8 mph67%29.47 "Hg2 mi
12:00 pm90 °FBroken clouds.9 mph67%29.50 "Hg2 mi
11:00 am88 °FBroken clouds.9 mph75%29.50 "Hg2 mi
10:30 am88 °FBroken clouds.9 mph70%29.50 "Hg2 mi
10:00 am86 °FScattered clouds.9 mph75%29.50 "Hg2 mi
9:30 am86 °FScattered clouds.8 mph75%29.50 "Hg2 mi
9:00 am86 °FScattered clouds.5 mph75%29.50 "Hg2 mi
8:30 am84 °FScattered clouds.5 mph79%29.50 "Hg2 mi
8:00 am82 °FScattered clouds.6 mph84%29.47 "Hg2 mi
7:30 am82 °FScattered clouds.6 mph84%29.50 "Hg2 mi
7:00 am82 °FScattered clouds.6 mph84%29.47 "Hg2 mi
6:30 am82 °FFog.3 mph84%29.47 "Hg1 mi
6:00 am82 °FFog.3 mph84%29.47 "Hg1 mi
5:00 am82 °FFog.5 mph84%29.45 "Hg1 mi
4:30 am81 °FFog.5 mph89%29.45 "Hg1 mi
4:00 am82 °FFog.5 mph84%29.45 "Hg1 mi
3:30 am81 °FFog.5 mph89%29.45 "Hg1 mi
3:00 am82 °FFog.6 mph84%29.45 "Hg1 mi
2:30 am81 °FFog.5 mph89%29.45 "Hg1 mi
2:00 am81 °FFog.5 mph89%29.45 "Hg1 mi
1:30 am81 °FFog.6 mph89%29.45 "Hg1 mi
1:00 am81 °FFog.6 mph84%29.45 "Hg1 mi
12:30 am81 °FFog.6 mph84%29.45 "Hg1 mi
12:00 am81 °FFog.6 mph84%29.47 "Hg1 mi
11:30 pm
Thu, Jul 22
82 °FFog.6 mph84%29.47 "Hg1 mi
11:00 pm82 °FFog.6 mph79%29.47 "Hg1 mi
10:30 pm82 °FFog.6 mph84%29.47 "Hg1 mi
10:00 pm82 °FFog.5 mph84%29.47 "Hg1 mi
Weather by CustomWeather, © 2021

See weather overview